| time (UTC) | temp C | wind direction | speed KPH | gust KPH | rain 1hr cm | rain 24hr cm | rain mn cm | humidity % | barometer mb |
| 20260504041543 | 4 | 247 | 0.0 | 3.2 | 0.00 | 0.00 | 0.00 | 64 | 1010.8 |
| 20260504040533 | 4 | 0.0 | 1.6 | 0.00 | 0.00 | 0.00 | 63 | 1010.8 | |
| 20260504035522 | 5 | 116 | 0.0 | 3.2 | 0.00 | 0.00 | 0.00 | 64 | 1010.9 |
| 20260504034614 | 5 | 0.0 | 1.6 | 0.00 | 0.00 | 0.00 | 64 | 1010.8 | |
| 20260504033604 | 5 | 0.0 | 1.6 | 0.00 | 0.00 | 0.00 | 61 | 1010.7 | |
| 20260504032613 | 5 | 0.0 | 3.2 | 0.00 | 0.00 | 0.00 | 60 | 1010.9 | |
| 20260504031543 | 5 | 0.0 | 3.2 | 0.00 | 0.00 | 0.00 | 63 | 1010.9 | |
| 20260504030553 | 5 | 118 | 0.0 | 3.2 | 0.00 | 0.00 | 0.00 | 63 | 1010.9 |
| 20260504025543 | 5 | 0.0 | 3.2 | 0.00 | 0.00 | 0.00 | 62 | 1010.9 | |
| 20260504024615 | 5 | 183 | 0.0 | 3.2 | 0.00 | 0.00 | 0.00 | 61 | 1011.0 |
| 20260504023605 | 5 | 0.0 | 3.2 | 0.00 | 0.00 | 0.00 | 60 | 1010.9 | |
| 20260504022554 | 6 | 0.0 | 1.6 | 0.00 | 0.00 | 0.00 | 61 | 1010.8 | |
| 20260504021625 | 6 | 0.0 | 1.6 | 0.00 | 0.00 | 0.00 | 58 | 1011.0 | |
| 20260504020534 | 6 | 250 | 1.6 | 3.2 | 0.00 | 0.00 | 0.00 | 57 | 1010.8 |
| 20260504015524 | 6 | 57 | 0.0 | 1.6 | 0.00 | 0.00 | 0.00 | 53 | 1010.8 |
| 20260504014615 | 7 | 107 | 1.6 | 6.4 | 0.00 | 0.00 | 0.00 | 52 | 1010.7 |
| 20260504013605 | 7 | 126 | 4.8 | 8.0 | 0.00 | 0.00 | 0.00 | 51 | 1010.5 |
| 20260504012555 | 8 | 134 | 4.8 | 8.0 | 0.00 | 0.00 | 0.00 | 48 | 1010.5 |
| 20260504011545 | 7 | 131 | 4.8 | 9.7 | 0.00 | 0.00 | 0.00 | 50 | 1010.5 |
| 20260504010535 | 8 | 133 | 4.8 | 6.4 | 0.00 | 0.00 | 0.00 | 46 | 1010.4 |
| 20260504005526 | 9 | 124 | 4.8 | 6.4 | 0.00 | 0.00 | 0.00 | 43 | 1010.4 |
| 20260504004536 | 10 | 127 | 3.2 | 6.4 | 0.00 | 0.00 | 0.00 | 42 | 1010.3 |
| 20260504003607 | 11 | 146 | 3.2 | 6.4 | 0.00 | 0.00 | 0.00 | 40 | 1010.3 |
| 20260504002557 | 11 | 324 | 3.2 | 11.3 | 0.00 | 0.00 | 0.00 | 38 | 1010.2 |
| 20260504001547 | 11 | 294 | 3.2 | 8.0 | 0.00 | 0.00 | 0.00 | 38 | 1010.2 |
| 20260504000557 | 11 | 302 | 4.8 | 16.1 | 0.00 | 0.00 | 0.00 | 36 | 1010.1 |
| 20260503235527 | 12 | 306 | 11.3 | 20.9 | 0.00 | 0.00 | 0.00 | 35 | 1010.0 |
| 20260503234517 | 12 | 287 | 6.4 | 14.5 | 0.00 | 0.00 | 0.00 | 35 | 1010.0 |
| 20260503233608 | 12 | 301 | 11.3 | 29.0 | 0.00 | 0.00 | 0.00 | 34 | 1009.8 |
| 20260503232618 | 12 | 311 | 9.7 | 20.9 | 0.00 | 0.00 | 0.00 | 34 | 1009.9 |
| 20260503231608 | 12 | 297 | 11.3 | 24.1 | 0.00 | 0.00 | 0.00 | 33 | 1009.8 |
| 20260503230538 | 12 | 286 | 12.9 | 29.0 | 0.00 | 0.00 | 0.00 | 33 | 1009.7 |
| 20260503225528 | 12 | 303 | 12.9 | 19.3 | 0.00 | 0.00 | 0.00 | 34 | 1009.7 |
| 20260503224538 | 12 | 302 | 8.0 | 17.7 | 0.00 | 0.00 | 0.00 | 33 | 1009.8 |
| 20260503223609 | 12 | 295 | 12.9 | 24.1 | 0.00 | 0.00 | 0.00 | 33 | 1009.8 |
| 20260503222559 | 12 | 310 | 8.0 | 20.9 | 0.00 | 0.00 | 0.00 | 34 | 1009.7 |
| 20260503221549 | 12 | 320 | 9.7 | 27.4 | 0.00 | 0.00 | 0.00 | 34 | 1009.7 |
| 20260503220539 | 12 | 315 | 8.0 | 25.7 | 0.00 | 0.00 | 0.00 | 35 | 1009.8 |
| 20260503215529 | 12 | 302 | 12.9 | 25.7 | 0.00 | 0.00 | 0.00 | 34 | 1009.8 |
| 20260503214519 | 13 | 295 | 16.1 | 27.4 | 0.00 | 0.00 | 0.00 | 33 | 1009.7 |
| 20260503213610 | 12 | 307 | 9.7 | 25.7 | 0.00 | 0.00 | 0.00 | 34 | 1009.6 |
| 20260503212600 | 12 | 308 | 22.5 | 30.6 | 0.00 | 0.00 | 0.00 | 34 | 1009.6 |
| 20260503211550 | 12 | 304 | 14.5 | 30.6 | 0.00 | 0.00 | 0.00 | 34 | 1009.7 |
| 20260503210600 | 12 | 288 | 11.3 | 24.1 | 0.00 | 0.00 | 0.00 | 34 | 1009.6 |
| 20260503205530 | 12 | 295 | 14.5 | 20.9 | 0.00 | 0.00 | 0.00 | 34 | 1009.8 |
| 20260503204520 | 12 | 302 | 16.1 | 29.0 | 0.00 | 0.00 | 0.00 | 34 | 1009.7 |
| 20260503203611 | 12 | 304 | 11.3 | 29.0 | 0.00 | 0.00 | 0.00 | 34 | 1009.8 |
| 20260503202601 | 12 | 281 | 11.3 | 20.9 | 0.00 | 0.00 | 0.00 | 35 | 1009.6 |
| 20260503201551 | 12 | 337 | 6.4 | 20.9 | 0.00 | 0.00 | 0.00 | 34 | 1009.7 |
| 20260503200601 | 12 | 289 | 17.7 | 43.5 | 0.00 | 0.00 | 0.00 | 34 | 1009.8 |
| 20260503195531 | 12 | 301 | 14.5 | 30.6 | 0.00 | 0.00 | 0.00 | 37 | 1010.0 |
| 20260503194521 | 12 | 297 | 9.7 | 27.4 | 0.00 | 0.00 | 0.00 | 36 | 1010.2 |
| 20260503193612 | 11 | 302 | 17.7 | 33.8 | 0.00 | 0.00 | 0.00 | 37 | 1010.6 |
| 20260503192602 | 11 | 303 | 14.5 | 30.6 | 0.00 | 0.00 | 0.00 | 37 | 1010.7 |
| 20260503191552 | 11 | 283 | 11.3 | 33.8 | 0.00 | 0.00 | 0.00 | 37 | 1010.7 |
| 20260503190542 | 11 | 276 | 14.5 | 30.6 | 0.00 | 0.00 | 0.00 | 36 | 1010.7 |
| 20260503185532 | 11 | 303 | 14.5 | 30.6 | 0.00 | 0.00 | 0.00 | 36 | 1010.7 |
| 20260503184522 | 11 | 298 | 14.5 | 27.4 | 0.00 | 0.00 | 0.00 | 36 | 1010.9 |
| 20260503183614 | 11 | 302 | 17.7 | 32.2 | 0.00 | 0.00 | 0.00 | 36 | 1010.9 |
| 20260503182603 | 11 | 308 | 14.5 | 32.2 | 0.00 | 0.00 | 0.00 | 36 | 1010.9 |
| 20260503181553 | 11 | 319 | 17.7 | 33.8 | 0.00 | 0.00 | 0.00 | 36 | 1010.8 |
| 20260503180543 | 11 | 293 | 22.5 | 35.4 | 0.00 | 0.00 | 0.00 | 36 | 1011.1 |
| 20260503175613 | 10 | 303 | 11.3 | 25.7 | 0.00 | 0.00 | 0.00 | 37 | 1011.2 |
| 20260503174523 | 10 | 295 | 17.7 | 35.4 | 0.00 | 0.00 | 0.00 | 36 | 1011.3 |
| 20260503173614 | 10 | 282 | 16.1 | 30.6 | 0.00 | 0.00 | 0.00 | 36 | 1011.3 |
| 20260503172604 | 10 | 291 | 17.7 | 29.0 | 0.00 | 0.00 | 0.00 | 36 | 1011.3 |
| 20260503171553 | 10 | 299 | 9.7 | 27.4 | 0.00 | 0.00 | 0.00 | 36 | 1011.4 |
| 20260503170543 | 10 | 275 | 12.9 | 25.7 | 0.00 | 0.00 | 0.00 | 35 | 1011.5 |
| 20260503150545 | 7 | 270 | 11.3 | 30.6 | 0.00 | 0.00 | 0.00 | 43 | 1012.8 |
| 20260503130547 | 5 | 347 | 8.0 | 17.7 | 0.00 | 0.00 | 0.00 | 51 | 1013.3 |
| 20260503110629 | 0 | 301 | 1.6 | 6.4 | 0.00 | 0.00 | 0.00 | 77 | 1013.2 |
| 20260503081601 | 1 | 267 | 4.8 | 11.3 | 0.00 | 0.00 | 0.00 | 71 | 1012.1 |
| 20260503080551 | 1 | 274 | 6.4 | 17.7 | 0.00 | 0.00 | 0.00 | 71 | 1012.2 |
| 20260503072612 | 1 | 282 | 3.2 | 8.0 | 0.00 | 0.00 | 0.00 | 71 | 1012.1 |
| 20260503071602 | 1 | 47 | 0.0 | 3.2 | 0.00 | 0.00 | 0.00 | 72 | 1012.1 |
| 20260503070552 | 1 | 61 | 0.0 | 3.2 | 0.00 | 0.00 | 0.00 | 71 | 1012.2 |
| 20260503054534 | 2 | 316 | 8.0 | 14.5 | 0.00 | 0.00 | 0.00 | 67 | 1012.6 |
| 20260503053524 | 2 | 295 | 4.8 | 9.7 | 0.00 | 0.00 | 0.00 | 67 | 1012.6 |
| 20260503052615 | 2 | 270 | 8.0 | 12.9 | 0.00 | 0.00 | 0.00 | 65 | 1012.7 |
| 20260503051605 | 2 | 305 | 6.4 | 14.5 | 0.00 | 0.00 | 0.00 | 65 | 1012.7 |
| 20260503050555 | 2 | 307 | 3.2 | 8.0 | 0.00 | 0.00 | 0.00 | 65 | 1012.8 |
| 20260503045545 | 2 | 341 | 6.4 | 11.3 | 0.00 | 0.00 | 0.00 | 64 | 1012.9 |
| 20260503044536 | 2 | 308 | 8.0 | 9.7 | 0.00 | 0.00 | 0.00 | 65 | 1013.0 |
| 20260503043525 | 2 | 313 | 4.8 | 11.3 | 0.00 | 0.00 | 0.00 | 64 | 1013.0 |
| 20260503042616 | 2 | 317 | 6.4 | 9.7 | 0.00 | 0.00 | 0.00 | 68 | 1013.1 |